Regional Weather Roundup
Issued by NWS

Home | Current Version | Previous Version | Text Only | Print | Product List | Glossary Off
Versions: 1 2 3 4 5 6 7 8 9 10 11 12 13 14 15 16 17 18 19 20 21 22 23 24 25 26 27 28 29 30 31 32 33 34 35 36 37 38 39 40 41 42 43 44 45 46 47 48 49 50

000
ASUS43 KDMX 292107
RWRIA

WEATHER ROUNDUP FOR IOWA
NATIONAL WEATHER SERVICE DES MOINES IA
400 PM CDT MON JUN 29 2015

NOTE: "FAIR" INDICATES FEW OR NO CLOUDS BELOW 12,000 FEET WITH NO
SIGNIFICANT WEATHER AND/OR OBSTRUCTIONS TO VISIBILITY.

* - THESE STATIONS ARE NOT NWS STATIONS...THUS NOT UNDER NWS
QUALITY CONTROL.  THEY ALSO DO NOT REPORT WEATHER SUCH
AS PRECIPITATION OR FOG.

IAZ001>003-012>014-020>022-031>034-043>046-292200-
   NORTHWEST IOWA

CITY           SKY/WX    TMP DP  RH WIND       PRES   REMARKS
CARROLL *      SUNNY     81  61  50 NW10      29.90F HX  81
CHEROKEE *     MOSUNNY   81  61  50 NW8       29.91F HX  81
DENISON *      SUNNY     81  61  50 N7G15     29.90F HX  81
LE MARS *      SUNNY     82  63  51 NW9G16    29.92F HX  83
ORANGE CITY *  SUNNY     79  61  53 NW13      29.92F HX  80
SHELDON *      SUNNY     81  61  50 NW12      29.91S HX  81
SIOUX CITY     MOSUNNY   85  61  44 N9        29.92F HX  85
SPENCER        SUNNY     83  60  45 NW13      29.90F HX  83
STORM LAKE *   SUNNY     79  63  57 NW10      29.93S HX  80
$$

IAZ055>058-069>071-079>083-090>094-292200-
   SOUTHWEST IOWA

CITY           SKY/WX    TMP DP  RH WIND       PRES   REMARKS
ATLANTIC *     SUNNY     81  61  50 NW14      29.91S HX  81
AUDUBON *      SUNNY     82  61  47 NW7       29.92F HX  83
CLARINDA *     SUNNY     84  66  54 N10G18    29.92F HX  86
COUNCIL BLFS * SUNNY     82  63  51 N9        29.93S HX  83
CRESTON *      SUNNY     82  63  51 NW14      29.91F HX  83
HARLAN  *      MOSUNNY   81  63  54 N10       29.95F HX  82
LAMONI         MOSUNNY   83  64  52 NW9       29.89F HX  84
RED OAK *      MOSUNNY   84  63  48 NW13      29.92S HX  85
SHENANDOAH *   MOSUNNY   84  61  45 NW9       29.92F HX  84
$$

IAZ047>049-059>061-072>074-084-292200-
   CENTRAL IOWA

CITY           SKY/WX    TMP DP  RH WIND       PRES   REMARKS
AMES           MOSUNNY   81  64  56 NW13      29.87F HX  82
ANKENY *       SUNNY     81  64  57 NW12      29.87F HX  82
CHARITON *     SUNNY     81  66  61 NW8G15    29.88F HX  83
DES MOINES     CLOUDY    82  62  50 NW14      29.87F HX  83
GRINNELL*      PTSUNNY   79  64  61 NW10G17   29.86F HX  81
KNOXVILLE *    MOSUNNY   81  64  57 NW10      29.86S HX  82
MARSHALLTOWN   MOSUNNY   81  65  58 NW13G21   29.84F HX  83
PELLA *        SUNNY     81  68  65 NW9       29.87F HX  83
PERRY *          N/A     81  61  50 NW8       29.89S HX  81
$$

IAZ004>006-015-016-023>025-035-036-292200-
   NORTH CENTRAL IOWA

CITY           SKY/WX    TMP DP  RH WIND       PRES   REMARKS
ALGONA *       SUNNY     81  63  54 NW9       29.87F HX  82
CLARION *      MOSUNNY   81  63  54 NW12G18   29.86F HX  82
ESTHERVILLE    SUNNY     80  61  52 NW13      29.88F HX  81
FORT DODGE *   MOSUNNY   81  63  54 NW8       29.89F HX  82
MASON CITY     MOSUNNY   82  64  54 NW14      29.85F HX  83
FOREST CITY *  MOSUNNY   77  63  61 W13       29.85F
IOWA FALLS *     N/A     81  63  54 NW9       29.86F HX  82
$$

IAZ007>011-017>019-026>030-037>042-050>054-066-292200-
   NORTHEAST IOWA

CITY           SKY/WX    TMP DP  RH WIND       PRES   REMARKS
CEDAR RAPIDS   MOSUNNY   80  66  62 NW12      29.81F HX  82
CHARLES CITY * SUNNY     79  66  65 NW15      29.83F HX  81
CLINTON *      MOSUNNY   79  64  61 W8G16     29.83F HX  81
DECORAH *        N/A    N/A N/A N/A MISG        N/A
DUBUQUE        MOSUNNY   79  63  57 W9        29.80F HX  80
MONTICELLO *   PTSUNNY   77 -33   1 CALM      29.80F
OELWEIN *      MOSUNNY   79  63  57 NW9G16    29.82F HAZE    HX  80
WATERLOO       MOSUNNY   82  65  56 NW7       29.81F HX  84
$$

IAZ064-065-067-068-078-292200-
   EAST CENTRAL IOWA

CITY           SKY/WX    TMP DP  RH WIND       PRES   REMARKS
DAVENPORT      MOSUNNY   79  66  64 W9        29.81F HX  81
IOWA CITY      MOSUNNY   80  63  55 NW9       29.82F HX  81
MT. PLEASANT * PTSUNNY   81  61  50 NW5       29.84F HX  81
MUSCATINE *    MOSUNNY   82  64  54 NW9G16    29.82F HX  84
QUAD CITIES    SUNNY     80  65  59 W9        29.81F HX  82
$$

IAZ062-063-075>077-085>089-095>099-292200-
   SOUTHEAST IOWA

CITY           SKY/WX    TMP DP  RH WIND       PRES   REMARKS
BURLINGTON     SUNNY     80  66  62 W6        29.83F HX  82
FAIRFIELD *    MOSUNNY   81  64  57 NW10G17   29.85S HX  82
FORT MADISON * MOSUNNY   81  66  61 W7        29.85F HX  83
KEOKUK *       SUNNY     75  70  83 S6G13     29.84F
OSKALOOSA *      N/A     81  64  57 NW9       29.86F HX  82
CENTERVILLE *  SUNNY     81  64  57 NW9       29.89F HX  82
OTTUMWA        SUNNY     81  66  60 NW12      29.84F HX  83
WASHINGTON *   MOSUNNY   82  66  57 NW15      29.84F HX  85
$$

ABBREVIATIONS USED IN REMARKS
   TC - TEMPERATURES IN CELSIUS
  WCI - WIND CHILL INDEX
   HX - HEAT INDEX
  VSB - VISIBILITY
$$




USA.gov is the U.S. government's official web portal to all federal, state and local government web resources and services.